Flag for Canada Weather past 2 weeks in Miramichi, New Brunswick, Canada

Now
46 °F

Sprinkles. Overcast.


Feels Like: 45 °F
Forecast: 41 / 58 °F
Wind: 3 mph from West

Location: Bathurst Airport

Current Time: Sep 18, 2014 at 1:28:29 AM

Latest Report: Sep 18, 2014 at 1:00 AM


Visibility: 12 mi

Pressure: 29.95 "Hg

Humidity: 87%

Dew point: 43 °F

Location of MiramichiLocation

Historic Weather in Miramichi — Graph

°F

Miramichi temperature yesterday

Maximum temperature yesterday: 59 °F (at 2:00 PM)
Minimum temperature yesterday: 39 °F (at 6:00 AM)
Average temperature yesterday: 50 °F

Past Weeks' High & Low Weather Summary

 TemperatureHumidityPressure
High81 °F (Sep 6, 11:00 AM)100% (Sep 3, 4:48 AM)30.45 "Hg (Sep 3, 4:48 AM)
Low36 °F (Sep 9, 6:00 AM)30% (Sep 8, 3:00 PM)29.55 "Hg (Sep 3, 7:00 AM)
Average57 °F75%29.99 "Hg
* Reported Midnight between Sep 2 and Sep 3 — Midnight between Sep 17 and Sep 18, Miramichi, Weather by CustomWeather, © 2014

Note: Actual official high and low records may vary slightly from our data, if they occured in-between our weather recording intervals... More about our weather records

Advertising

Miramichi weather history for previous 24 hours

 ConditionsComfort  
Time TempWeatherWind HumidityBarometerVisibility
12:00 AM
Sep 18
46 °FSprinkles. Overcast.2 mph82%29.97 "Hg12 mi
11:00 PM
Sep 17
46 °FSprinkles. Overcast.2 mph87%29.96 "Hg12 mi
10:52 PM46 °FSprinkles. Overcast.2 mph93%29.96 "Hg12 mi
10:00 PM48 °FOvercast.2 mph76%29.96 "Hg15 mi
9:00 PM48 °FOvercast.2 mph82%29.95 "Hg15 mi
8:00 PM52 °FBroken clouds.2 mph62%29.93 "Hg15 mi
7:00 PM55 °FBroken clouds.No wind55%29.93 "Hg15 mi
6:00 PM59 °FScattered clouds.7 mph48%29.92 "Hg15 mi
5:00 PM59 °FPassing clouds.8 mph48%29.91 "Hg15 mi
4:00 PM57 °FScattered clouds.9 mph51%29.91 "Hg15 mi
3:00 PM57 °FPartly sunny.7 mph55%29.90 "Hg15 mi
2:00 PM59 °FScattered clouds.16 mph51%29.90 "Hg15 mi
1:00 PM57 °FScattered clouds.15 mph59%29.90 "Hg15 mi
12:00 PM57 °FScattered clouds.10 mph63%29.89 "Hg15 mi
11:00 AM55 °FScattered clouds.13 mph67%29.88 "Hg15 mi
10:00 AM54 °FPassing clouds.12 mph77%29.87 "Hg15 mi
9:00 AM52 °FPassing clouds.8 mph82%29.86 "Hg15 mi
8:00 AM46 °FClear.7 mph93%29.85 "Hg15 mi
7:00 AM39 °FFog.6 mph100%29.83 "Hg12 mi
6:00 AM39 °FClear.3 mph100%29.83 "Hg12 mi
5:00 AM41 °FClear.3 mph93%29.82 "Hg10 mi
4:00 AM41 °FPassing clouds.2 mph93%29.82 "Hg10 mi
3:00 AM45 °FPassing clouds.5 mph93%29.83 "Hg12 mi
2:00 AM45 °FPassing clouds.6 mph100%29.84 "Hg12 mi
1:00 AM48 °FPassing clouds.5 mph94%29.84 "Hg15 mi
Weather by CustomWeather, © 2014

See weather overviewHow to use our weather pages